^^
Paulen-Weather Station Historical Data
Daily Summary for January 23, 2020 Units:  Metric    English   Both
Daily Weekly Monthly Yearly Custom
  High: Low: Average:
Temperature: 9 °C 1 °C 6.6 °C
Dew Point: 8 °C -3 °C 4.9 °C
Humidity: 97% 65% 89%
Wind Speed: 24km/h 3km/h 13.2km/h
Wind Gust: 32km/h - -
Wind- - WNW
Pressure: 1030.24 hPa 1016.36 hPa -
Precipitation: 0 mm    
Historical Graphs
 
 
Tabular Data for January 23, 2020
Time Temperature Dew Point Pressure Wind Wind Speed Wind Gust Humidity Rainfall Rate (Hourly) solar
00:04 1 °C -3 °C 1030.11 hPa NW 5 km/h 6 km/h 74% 0 mm 0 W/m2
00:09 2 °C -3 °C 1030.07 hPa NW 4 km/h 6 km/h 72% 0 mm 0 W/m2
00:14 2 °C -3 °C 1030.07 hPa NW 5 km/h 5 km/h 70% 0 mm 0 W/m2
00:19 2 °C -3 °C 1030.17 hPa NW 8 km/h 8 km/h 68% 0 mm 0 W/m2
00:24 3 °C -3 °C 1030.21 hPa NW 4 km/h 10 km/h 66% 0 mm 0 W/m2
00:29 3 °C -3 °C 1030.24 hPa NW 3 km/h 6 km/h 66% 0 mm 0 W/m2
00:34 3 °C -3 °C 1030.24 hPa WNW 5 km/h 8 km/h 65% 0 mm 0 W/m2
00:39 3 °C -3 °C 1030.14 hPa WNW 4 km/h 5 km/h 66% 0 mm 0 W/m2
00:44 3 °C -3 °C 1030.04 hPa WNW 5 km/h 5 km/h 66% 0 mm 0 W/m2
00:49 2 °C -3 °C 1030.07 hPa WNW 5 km/h 5 km/h 67% 0 mm 0 W/m2
00:54 2 °C -3 °C 1030.07 hPa WNW 4 km/h 5 km/h 67% 0 mm 0 W/m2
00:59 2 °C -3 °C 1030.04 hPa W 3 km/h 3 km/h 68% 0 mm 0 W/m2
01:04 2 °C -3 °C 1030.11 hPa WNW 5 km/h 3 km/h 69% 0 mm 0 W/m2
01:09 2 °C -3 °C 1030.07 hPa WNW 7 km/h 8 km/h 67% 0 mm 0 W/m2
01:14 3 °C -3 °C 1030 hPa WNW 8 km/h 11 km/h 67% 0 mm 0 W/m2
01:19 3 °C -2 °C 1029.94 hPa WNW 10 km/h 11 km/h 67% 0 mm 0 W/m2
01:24 3 °C -2 °C 1029.7 hPa W 8 km/h 13 km/h 68% 0 mm 0 W/m2
01:29 3 °C -2 °C 1029.67 hPa W 8 km/h 10 km/h 67% 0 mm 0 W/m2
01:34 3 °C -2 °C 1029.67 hPa WNW 8 km/h 11 km/h 67% 0 mm 0 W/m2
01:39 3 °C -2 °C 1029.63 hPa W 10 km/h 13 km/h 68% 0 mm 0 W/m2
01:44 3 °C -1 °C 1029.77 hPa NW 8 km/h 14 km/h 70% 0 mm 0 W/m2
01:49 3 °C -1 °C 1029.77 hPa WNW 8 km/h 11 km/h 71% 0 mm 0 W/m2
01:54 3 °C -1 °C 1029.7 hPa WNW 6 km/h 11 km/h 71% 0 mm 0 W/m2
01:59 3 °C -1 °C 1029.53 hPa W 7 km/h 8 km/h 71% 0 mm 0 W/m2
02:04 3 °C -1 °C 1029.56 hPa WNW 6 km/h 11 km/h 72% 0 mm 0 W/m2
02:09 3 °C -2 °C 1029.53 hPa WNW 11 km/h 11 km/h 72% 0 mm 0 W/m2
02:14 3 °C -2 °C 1029.46 hPa NW 10 km/h 13 km/h 71% 0 mm 0 W/m2
02:19 3 °C -2 °C 1029.46 hPa WNW 11 km/h 11 km/h 71% 0 mm 0 W/m2
02:24 3 °C -1 °C 1029.5 hPa WNW 12 km/h 14 km/h 72% 0 mm 0 W/m2
02:29 3 °C -2 °C 1029.5 hPa WNW 10 km/h 13 km/h 71% 0 mm 0 W/m2
02:34 3 °C -2 °C 1029.43 hPa WNW 9 km/h 13 km/h 71% 0 mm 0 W/m2
02:39 3 °C -1 °C 1029.26 hPa NW 11 km/h 13 km/h 73% 0 mm 0 W/m2
02:44 3 °C -1 °C 1029.26 hPa WNW 12 km/h 14 km/h 73% 0 mm 0 W/m2
02:49 3 °C -1 °C 1029.29 hPa WNW 11 km/h 14 km/h 73% 0 mm 0 W/m2
02:54 4 °C -1 °C 1029.29 hPa WNW 10 km/h 13 km/h 73% 0 mm 0 W/m2
02:59 4 °C -1 °C 1029.29 hPa NW 8 km/h 11 km/h 73% 0 mm 0 W/m2
03:04 4 °C -1 °C 1029.29 hPa NW 12 km/h 10 km/h 73% 0 mm 0 W/m2
03:09 4 °C 0 °C 1029.23 hPa NW 9 km/h 14 km/h 74% 0 mm 0 W/m2
03:14 4 °C 0 °C 1029.06 hPa NW 11 km/h 11 km/h 75% 0 mm 0 W/m2
03:19 4 °C 0 °C 1028.95 hPa WNW 10 km/h 14 km/h 75% 0 mm 0 W/m2
03:24 4 °C 0 °C 1028.99 hPa WNW 10 km/h 13 km/h 76% 0 mm 0 W/m2
03:29 4 °C 0 °C 1028.92 hPa NW 10 km/h 14 km/h 76% 0 mm 0 W/m2
03:34 4 °C 0 °C 1028.92 hPa WNW 12 km/h 14 km/h 77% 0 mm 0 W/m2
03:39 4 °C 0 °C 1028.78 hPa NW 10 km/h 14 km/h 78% 0 mm 0 W/m2
03:44 4 °C 1 °C 1028.65 hPa WNW 9 km/h 16 km/h 79% 0 mm 0 W/m2
03:49 4 °C 1 °C 1028.58 hPa WNW 9 km/h 13 km/h 81% 0 mm 0 W/m2
03:54 4 °C 1 °C 1028.48 hPa WNW 11 km/h 11 km/h 82% 0 mm 0 W/m2
03:59 4 °C 1 °C 1028.34 hPa WNW 8 km/h 13 km/h 82% 0 mm 0 W/m2
04:04 4 °C 1 °C 1028.38 hPa WNW 9 km/h 11 km/h 82% 0 mm 0 W/m2
04:09 4 °C 1 °C 1028.31 hPa WNW 11 km/h 11 km/h 83% 0 mm 0 W/m2
04:14 4 °C 1 °C 1028.28 hPa WNW 6 km/h 19 km/h 83% 0 mm 0 W/m2
04:19 4 °C 1 °C 1028.14 hPa NW 7 km/h 8 km/h 83% 0 mm 0 W/m2
04:24 4 °C 1 °C 1028.07 hPa WNW 11 km/h 11 km/h 84% 0 mm 0 W/m2
04:29 4 °C 2 °C 1027.97 hPa WNW 11 km/h 16 km/h 84% 0 mm 0 W/m2
04:34 4 °C 2 °C 1027.84 hPa NW 8 km/h 14 km/h 84% 0 mm 0 W/m2
04:39 4 °C 2 °C 1027.7 hPa WNW 8 km/h 10 km/h 85% 0 mm 0 W/m2
04:44 4 °C 2 °C 1027.5 hPa WNW 10 km/h 11 km/h 86% 0 mm 0 W/m2
04:49 4 °C 2 °C 1027.4 hPa WNW 11 km/h 11 km/h 87% 0 mm 0 W/m2
04:54 4 °C 3 °C 1027.33 hPa WNW 13 km/h 19 km/h 88% 0 mm 0 W/m2
04:59 4 °C 3 °C 1027.26 hPa NW 11 km/h 19 km/h 88% 0 mm 0 W/m2
05:04 5 °C 3 °C 1027.19 hPa NW 14 km/h 16 km/h 89% 0 mm 0 W/m2
05:09 5 °C 3 °C 1027.16 hPa W 12 km/h 19 km/h 90% 0 mm 0 W/m2
05:14 5 °C 3 °C 1027.19 hPa WNW 10 km/h 14 km/h 90% 0 mm 0 W/m2
05:19 5 °C 3 °C 1027.19 hPa WNW 11 km/h 13 km/h 90% 0 mm 0 W/m2
05:24 5 °C 3 °C 1027.13 hPa NW 10 km/h 14 km/h 90% 0 mm 0 W/m2
05:29 5 °C 3 °C 1027.09 hPa NW 10 km/h 14 km/h 91% 0 mm 0 W/m2
05:34 5 °C 4 °C 1027.06 hPa WNW 10 km/h 13 km/h 91% 0 mm 0 W/m2
05:39 5 °C 4 °C 1026.89 hPa WNW 12 km/h 14 km/h 92% 0 mm 0 W/m2
05:44 5 °C 4 °C 1026.85 hPa NW 10 km/h 13 km/h 93% 0 mm 0 W/m2
05:49 5 °C 4 °C 1026.79 hPa WNW 14 km/h 13 km/h 93% 0 mm 0 W/m2
05:54 5 °C 4 °C 1026.72 hPa NW 15 km/h 14 km/h 93% 0 mm 0 W/m2
05:59 5 °C 4 °C 1026.55 hPa WNW 11 km/h 16 km/h 94% 0 mm 0 W/m2
06:04 5 °C 4 °C 1026.48 hPa NW 13 km/h 14 km/h 94% 0 mm 0 W/m2
06:09 5 °C 4 °C 1026.52 hPa NW 11 km/h 14 km/h 94% 0 mm 0 W/m2
06:14 5 °C 4 °C 1026.48 hPa WNW 12 km/h 13 km/h 94% 0 mm 0 W/m2
06:19 5 °C 5 °C 1026.45 hPa NW 8 km/h 21 km/h 94% 0 mm 0 W/m2
06:24 5 °C 5 °C 1026.41 hPa NW 14 km/h 11 km/h 95% 0 mm 0 W/m2
06:29 5 °C 5 °C 1026.35 hPa NW 11 km/h 19 km/h 95% 0 mm 0 W/m2
06:34 6 °C 5 °C 1026.31 hPa WNW 13 km/h 14 km/h 95% 0 mm 0 W/m2
06:39 6 °C 5 °C 1026.21 hPa NW 15 km/h 19 km/h 95% 0 mm 0 W/m2
06:44 6 °C 5 °C 1026.11 hPa NW 10 km/h 19 km/h 95% 0 mm 0 W/m2
06:49 6 °C 5 °C 1025.97 hPa WNW 9 km/h 11 km/h 95% 0 mm 0 W/m2
06:54 6 °C 5 °C 1025.87 hPa WNW 10 km/h 13 km/h 95% 0 mm 0 W/m2
06:59 6 °C 5 °C 1025.8 hPa WNW 12 km/h 16 km/h 95% 0 mm 0 W/m2
07:04 6 °C 5 °C 1025.74 hPa NW 10 km/h 14 km/h 95% 0 mm 0 W/m2
07:09 6 °C 5 °C 1025.6 hPa WNW 9 km/h 13 km/h 95% 0 mm 0 W/m2
07:14 6 °C 5 °C 1025.6 hPa NW 13 km/h 14 km/h 95% 0 mm 0 W/m2
07:19 6 °C 5 °C 1025.57 hPa WNW 9 km/h 14 km/h 95% 0 mm 0 W/m2
07:24 6 °C 5 °C 1025.7 hPa NW 10 km/h 11 km/h 96% 0 mm 0 W/m2
07:29 6 °C 6 °C 1025.77 hPa WNW 13 km/h 14 km/h 96% 0 mm 0 W/m2
07:34 6 °C 6 °C 1025.77 hPa NW 15 km/h 14 km/h 96% 0 mm 0 W/m2
07:39 6 °C 6 °C 1025.7 hPa WNW 12 km/h 24 km/h 96% 0 mm 0 W/m2
07:44 6 °C 6 °C 1025.57 hPa WNW 10 km/h 19 km/h 95% 0 mm 0 W/m2
07:49 6 °C 6 °C 1025.5 hPa NW 11 km/h 13 km/h 95% 0 mm 0 W/m2
07:54 6 °C 6 °C 1025.43 hPa NW 11 km/h 13 km/h 96% 0 mm 0 W/m2
07:59 6 °C 6 °C 1025.4 hPa NW 13 km/h 13 km/h 96% 0 mm 0 W/m2
08:04 6 °C 6 °C 1025.43 hPa NNW 15 km/h 21 km/h 96% 0 mm 0 W/m2
08:09 6 °C 6 °C 1025.36 hPa NNW 12 km/h 19 km/h 96% 0 mm 0 W/m2
08:14 6 °C 6 °C 1025.26 hPa NW 11 km/h 13 km/h 95% 0 mm 0 W/m2
08:19 6 °C 6 °C 1025.16 hPa N 13 km/h 14 km/h 95% 0 mm 0 W/m2
08:24 7 °C 6 °C 1025.06 hPa NNW 17 km/h 19 km/h 96% 0 mm 0 W/m2
08:29 7 °C 6 °C 1024.99 hPa NW 12 km/h 19 km/h 96% 0 mm 0 W/m2
08:34 7 °C 6 °C 1024.96 hPa NW 13 km/h 13 km/h 96% 0 mm 0 W/m2
08:39 7 °C 6 °C 1024.79 hPa N 17 km/h 21 km/h 96% 0 mm 5 W/m2
08:44 7 °C 6 °C 1024.69 hPa NW 14 km/h 19 km/h 96% 0 mm 5 W/m2
08:49 7 °C 6 °C 1024.59 hPa N 14 km/h 19 km/h 96% 0 mm 7 W/m2
08:54 7 °C 6 °C 1024.55 hPa NNW 17 km/h 19 km/h 96% 0 mm 9 W/m2
08:59 7 °C 6 °C 1024.55 hPa NNW 11 km/h 19 km/h 96% 0 mm 9 W/m2
09:04 7 °C 6 °C 1024.62 hPa WNW 11 km/h 13 km/h 96% 0 mm 9 W/m2
09:09 7 °C 6 °C 1024.59 hPa SSW 8 km/h 14 km/h 96% 0 mm 16 W/m2
09:14 7 °C 6 °C 1024.55 hPa WNW 10 km/h 11 km/h 96% 0 mm 35 W/m2
09:19 7 °C 6 °C 1024.52 hPa WNW 14 km/h 19 km/h 96% 0 mm 33 W/m2
09:24 7 °C 6 °C 1024.45 hPa NNW 12 km/h 19 km/h 96% 0 mm 23 W/m2
09:29 7 °C 6 °C 1024.38 hPa WNW 8 km/h 16 km/h 96% 0 mm 16 W/m2
09:34 7 °C 6 °C 1024.28 hPa NW 14 km/h 11 km/h 96% 0 mm 19 W/m2
09:39 7 °C 6 °C 1024.21 hPa WNW 14 km/h 19 km/h 96% 0 mm 28 W/m2
09:44 7 °C 6 °C 1024.11 hPa WNW 11 km/h 16 km/h 96% 0 mm 37 W/m2
09:49 7 °C 6 °C 1023.94 hPa WNW 10 km/h 16 km/h 96% 0 mm 65 W/m2
09:54 7 °C 6 °C 1023.87 hPa NW 16 km/h 16 km/h 96% 0 mm 51 W/m2
09:59 7 °C 7 °C 1023.74 hPa WNW 12 km/h 19 km/h 95% 0 mm 72 W/m2
10:04 7 °C 7 °C 1023.71 hPa NNW 17 km/h 19 km/h 95% 0 mm 98 W/m2
10:09 7 °C 7 °C 1023.71 hPa NW 14 km/h 23 km/h 95% 0 mm 65 W/m2
10:14 7 °C 7 °C 1023.64 hPa NW 12 km/h 19 km/h 95% 0 mm 56 W/m2
10:19 8 °C 7 °C 1023.67 hPa WNW 11 km/h 19 km/h 95% 0 mm 67 W/m2
10:24 8 °C 7 °C 1023.6 hPa WNW 14 km/h 13 km/h 95% 0 mm 70 W/m2
10:29 8 °C 7 °C 1023.57 hPa WNW 14 km/h 16 km/h 95% 0 mm 77 W/m2
10:34 8 °C 7 °C 1023.5 hPa NNW 20 km/h 19 km/h 95% 0 mm 76 W/m2
10:39 8 °C 7 °C 1023.5 hPa N 22 km/h 32 km/h 95% 0 mm 72 W/m2
10:44 8 °C 7 °C 1023.47 hPa NNW 20 km/h 26 km/h 96% 0 mm 76 W/m2
10:49 8 °C 7 °C 1023.5 hPa NW 19 km/h 29 km/h 96% 0 mm 63 W/m2
10:54 8 °C 7 °C 1023.37 hPa WNW 17 km/h 27 km/h 96% 0 mm 141 W/m2
10:59 8 °C 7 °C 1023.3 hPa NNW 16 km/h 21 km/h 96% 0 mm 141 W/m2
11:04 8 °C 7 °C 1023.3 hPa N 23 km/h 19 km/h 96% 0 mm 149 W/m2
11:09 8 °C 7 °C 1023.23 hPa NNW 19 km/h 29 km/h 96% 0 mm 127 W/m2
11:14 8 °C 7 °C 1023.13 hPa NNW 19 km/h 21 km/h 96% 0 mm 134 W/m2
11:19 8 °C 7 °C 1023.1 hPa NNW 20 km/h 23 km/h 96% 0 mm 158 W/m2
11:24 8 °C 7 °C 1022.99 hPa NNW 21 km/h 29 km/h 96% 0 mm 144 W/m2
11:29 8 °C 7 °C 1022.93 hPa WNW 22 km/h 24 km/h 96% 0 mm 139 W/m2
11:34 8 °C 7 °C 1022.86 hPa NW 19 km/h 24 km/h 96% 0 mm 137 W/m2
11:39 8 °C 7 °C 1022.79 hPa NNW 16 km/h 21 km/h 96% 0 mm 98 W/m2
11:44 8 °C 7 °C 1022.66 hPa N 19 km/h 21 km/h 96% 0 mm 93 W/m2
11:49 8 °C 7 °C 1022.62 hPa N 21 km/h 26 km/h 96% 0 mm 86 W/m2
11:54 8 °C 7 °C 1022.59 hPa WNW 15 km/h 26 km/h 96% 0 mm 56 W/m2
11:59 8 °C 7 °C 1022.52 hPa NNW 15 km/h 21 km/h 96% 0 mm 44 W/m2
12:04 8 °C 7 °C 1022.38 hPa N 15 km/h 16 km/h 96% 0 mm 47 W/m2
12:09 8 °C 7 °C 1022.25 hPa N 14 km/h 19 km/h 96% 0 mm 47 W/m2
12:14 8 °C 7 °C 1022.15 hPa N 19 km/h 19 km/h 96% 0 mm 47 W/m2
12:19 8 °C 7 °C 1022.11 hPa N 17 km/h 24 km/h 97% 0 mm 56 W/m2
12:24 8 °C 7 °C 1021.94 hPa NNW 15 km/h 19 km/h 97% 0 mm 54 W/m2
12:29 8 °C 7 °C 1021.84 hPa NNW 17 km/h 21 km/h 97% 0 mm 51 W/m2
12:34 8 °C 7 °C 1021.81 hPa NW 17 km/h 19 km/h 97% 0 mm 44 W/m2
12:39 8 °C 7 °C 1021.67 hPa NNW 16 km/h 19 km/h 97% 0 mm 56 W/m2
12:44 8 °C 7 °C 1021.61 hPa NNW 17 km/h 23 km/h 97% 0 mm 60 W/m2
12:49 8 °C 7 °C 1021.57 hPa N 17 km/h 21 km/h 97% 0 mm 40 W/m2
12:54 8 °C 7 °C 1021.47 hPa NNW 16 km/h 19 km/h 97% 0 mm 63 W/m2
12:59 8 °C 7 °C 1021.37 hPa NNW 17 km/h 19 km/h 97% 0 mm 63 W/m2
13:04 8 °C 7 °C 1021.3 hPa NW 16 km/h 23 km/h 97% 0 mm 70 W/m2
13:09 8 °C 7 °C 1021.23 hPa NW 17 km/h 21 km/h 97% 0 mm 65 W/m2
13:14 8 °C 8 °C 1021.17 hPa NW 14 km/h 21 km/h 97% 0 mm 76 W/m2
13:19 8 °C 8 °C 1021.1 hPa NW 17 km/h 19 km/h 97% 0 mm 65 W/m2
13:24 8 °C 8 °C 1021.06 hPa NW 16 km/h 19 km/h 97% 0 mm 72 W/m2
13:29 8 °C 8 °C 1020.96 hPa NW 15 km/h 21 km/h 97% 0 mm 72 W/m2
13:34 8 °C 8 °C 1020.89 hPa NNW 11 km/h 16 km/h 96% 0 mm 56 W/m2
13:39 8 °C 8 °C 1020.79 hPa NNW 19 km/h 16 km/h 96% 0 mm 81 W/m2
13:44 8 °C 8 °C 1020.69 hPa NW 12 km/h 26 km/h 96% 0 mm 84 W/m2
13:49 9 °C 8 °C 1020.59 hPa NW 17 km/h 14 km/h 95% 0 mm 76 W/m2
13:54 9 °C 8 °C 1020.49 hPa NW 11 km/h 24 km/h 95% 0 mm 90 W/m2
13:59 9 °C 8 °C 1020.39 hPa WNW 12 km/h 19 km/h 95% 0 mm 90 W/m2
14:04 9 °C 8 °C 1020.32 hPa NW 15 km/h 19 km/h 94% 0 mm 81 W/m2
14:09 9 °C 8 °C 1020.25 hPa NNE 15 km/h 21 km/h 94% 0 mm 95 W/m2
14:14 9 °C 8 °C 1020.22 hPa WSW 12 km/h 19 km/h 94% 0 mm 102 W/m2
14:19 9 °C 8 °C 1020.12 hPa WNW 9 km/h 19 km/h 94% 0 mm 97 W/m2
14:24 9 °C 8 °C 1020.05 hPa W 12 km/h 13 km/h 93% 0 mm 62 W/m2
14:29 9 °C 8 °C 1019.95 hPa NW 14 km/h 19 km/h 93% 0 mm 65 W/m2
14:34 9 °C 8 °C 1019.81 hPa WNW 13 km/h 19 km/h 93% 0 mm 67 W/m2
14:39 9 °C 8 °C 1019.74 hPa NNW 13 km/h 16 km/h 93% 0 mm 67 W/m2
14:44 9 °C 8 °C 1019.61 hPa WNW 18 km/h 19 km/h 93% 0 mm 56 W/m2
14:49 9 °C 8 °C 1019.57 hPa WNW 19 km/h 24 km/h 93% 0 mm 49 W/m2
14:54 9 °C 8 °C 1019.57 hPa NW 17 km/h 19 km/h 93% 0 mm 46 W/m2
14:59 9 °C 7 °C 1019.57 hPa NW 11 km/h 24 km/h 93% 0 mm 39 W/m2
15:04 8 °C 7 °C 1019.47 hPa NW 14 km/h 18 km/h 93% 0 mm 32 W/m2
15:09 8 °C 7 °C 1019.4 hPa NW 16 km/h 19 km/h 93% 0 mm 32 W/m2
15:14 8 °C 7 °C 1019.4 hPa NNW 15 km/h 19 km/h 93% 0 mm 30 W/m2
15:19 8 °C 7 °C 1019.37 hPa SW 11 km/h 21 km/h 93% 0 mm 32 W/m2
15:24 8 °C 7 °C 1019.34 hPa NNW 15 km/h 16 km/h 93% 0 mm 32 W/m2
15:29 8 °C 7 °C 1019.24 hPa WNW 15 km/h 19 km/h 93% 0 mm 28 W/m2
15:34 8 °C 7 °C 1019.2 hPa NNW 16 km/h 19 km/h 93% 0 mm 23 W/m2
15:39 8 °C 7 °C 1019.17 hPa NW 17 km/h 23 km/h 93% 0 mm 19 W/m2
15:44 8 °C 7 °C 1019.07 hPa NNW 21 km/h 21 km/h 93% 0 mm 14 W/m2
15:49 8 °C 7 °C 1019.1 hPa WNW 18 km/h 29 km/h 93% 0 mm 18 W/m2
15:54 8 °C 7 °C 1019.03 hPa WNW 14 km/h 19 km/h 93% 0 mm 18 W/m2
15:59 8 °C 7 °C 1019 hPa NW 13 km/h 19 km/h 93% 0 mm 12 W/m2
16:04 8 °C 7 °C 1018.9 hPa NNW 15 km/h 14 km/h 93% 0 mm 12 W/m2
16:09 8 °C 7 °C 1018.83 hPa WNW 14 km/h 19 km/h 93% 0 mm 9 W/m2
16:14 8 °C 7 °C 1018.8 hPa NW 13 km/h 16 km/h 93% 0 mm 9 W/m2
16:19 8 °C 7 °C 1018.73 hPa NNW 15 km/h 16 km/h 93% 0 mm 9 W/m2
16:24 8 °C 7 °C 1018.56 hPa NW 13 km/h 19 km/h 93% 0 mm 7 W/m2
16:29 8 °C 7 °C 1018.52 hPa WNW 14 km/h 16 km/h 93% 0 mm 5 W/m2
16:34 8 °C 7 °C 1018.59 hPa N 13 km/h 19 km/h 93% 0 mm 0 W/m2
16:39 8 °C 7 °C 1018.56 hPa WNW 11 km/h 19 km/h 93% 0 mm 0 W/m2
16:44 8 °C 7 °C 1018.49 hPa NW 13 km/h 13 km/h 93% 0 mm 0 W/m2
16:49 8 °C 7 °C 1018.42 hPa W 12 km/h 19 km/h 93% 0 mm 5 W/m2
16:54 8 °C 7 °C 1018.42 hPa WNW 12 km/h 14 km/h 93% 0 mm 0 W/m2
16:59 8 °C 7 °C 1018.42 hPa W 11 km/h 14 km/h 93% 0 mm 0 W/m2
17:04 8 °C 7 °C 1018.49 hPa NW 11 km/h 19 km/h 93% 0 mm 0 W/m2
17:09 8 °C 7 °C 1018.49 hPa WNW 11 km/h 14 km/h 92% 0 mm 0 W/m2
17:14 8 °C 7 °C 1018.49 hPa W 11 km/h 14 km/h 92% 0 mm 0 W/m2
17:19 8 °C 7 °C 1018.52 hPa W 9 km/h 11 km/h 92% 0 mm 0 W/m2
17:24 8 °C 7 °C 1018.52 hPa NW 9 km/h 13 km/h 92% 0 mm 0 W/m2
17:29 8 °C 7 °C 1018.56 hPa NW 14 km/h 13 km/h 92% 0 mm 0 W/m2
17:34 8 °C 7 °C 1018.49 hPa NNW 13 km/h 19 km/h 92% 0 mm 0 W/m2
17:39 8 °C 7 °C 1018.39 hPa NW 15 km/h 19 km/h 92% 0 mm 0 W/m2
17:44 8 °C 7 °C 1018.35 hPa WNW 11 km/h 19 km/h 92% 0 mm 0 W/m2
17:49 8 °C 7 °C 1018.29 hPa WNW 11 km/h 11 km/h 92% 0 mm 0 W/m2
17:54 8 °C 7 °C 1018.22 hPa NW 11 km/h 13 km/h 92% 0 mm 0 W/m2
17:59 8 °C 7 °C 1018.15 hPa WNW 13 km/h 14 km/h 92% 0 mm 0 W/m2
18:04 8 °C 7 °C 1018.08 hPa NW 11 km/h 14 km/h 92% 0 mm 0 W/m2
18:09 8 °C 6 °C 1018.05 hPa NNW 12 km/h 14 km/h 92% 0 mm 0 W/m2
18:14 8 °C 6 °C 1018.02 hPa WNW 17 km/h 14 km/h 92% 0 mm 0 W/m2
18:19 8 °C 6 °C 1017.95 hPa NNW 17 km/h 24 km/h 92% 0 mm 0 W/m2
18:24 8 °C 6 °C 1018.02 hPa NW 15 km/h 23 km/h 92% 0 mm 0 W/m2
18:29 8 °C 7 °C 1017.98 hPa NW 19 km/h 21 km/h 92% 0 mm 0 W/m2
18:34 8 °C 7 °C 1017.98 hPa NNW 14 km/h 23 km/h 92% 0 mm 0 W/m2
18:39 8 °C 7 °C 1017.98 hPa NNW 17 km/h 23 km/h 92% 0 mm 0 W/m2
18:44 8 °C 7 °C 1017.98 hPa WSW 19 km/h 21 km/h 91% 0 mm 0 W/m2
18:49 8 °C 6 °C 1017.98 hPa NNW 21 km/h 26 km/h 91% 0 mm 0 W/m2
18:54 8 °C 6 °C 1017.98 hPa NW 11 km/h 27 km/h 91% 0 mm 0 W/m2
18:59 8 °C 6 °C 1017.85 hPa NW 11 km/h 16 km/h 91% 0 mm 0 W/m2
19:04 8 °C 6 °C 1017.75 hPa WSW 11 km/h 19 km/h 91% 0 mm 0 W/m2
19:09 8 °C 6 °C 1017.64 hPa WNW 15 km/h 21 km/h 90% 0 mm 0 W/m2
19:14 8 °C 6 °C 1017.68 hPa NW 14 km/h 21 km/h 90% 0 mm 0 W/m2
19:19 8 °C 6 °C 1017.75 hPa NNW 18 km/h 29 km/h 89% 0 mm 0 W/m2
19:24 8 °C 6 °C 1017.81 hPa NW 10 km/h 29 km/h 89% 0 mm 0 W/m2
19:29 8 °C 6 °C 1017.78 hPa NW 13 km/h 14 km/h 89% 0 mm 0 W/m2
19:34 8 °C 6 °C 1017.75 hPa NW 14 km/h 16 km/h 88% 0 mm 0 W/m2
19:39 8 °C 6 °C 1017.68 hPa NW 12 km/h 19 km/h 88% 0 mm 0 W/m2
19:44 8 °C 6 °C 1017.68 hPa NW 16 km/h 23 km/h 87% 0 mm 0 W/m2
19:49 8 °C 6 °C 1017.58 hPa NW 14 km/h 21 km/h 87% 0 mm 0 W/m2
19:54 8 °C 6 °C 1017.47 hPa WNW 11 km/h 26 km/h 87% 0 mm 0 W/m2
19:59 8 °C 6 °C 1017.51 hPa NNW 15 km/h 21 km/h 87% 0 mm 0 W/m2
20:04 8 °C 6 °C 1017.51 hPa NW 14 km/h 23 km/h 87% 0 mm 0 W/m2
20:09 8 °C 6 °C 1017.47 hPa W 14 km/h 19 km/h 87% 0 mm 0 W/m2
20:14 8 °C 6 °C 1017.51 hPa NW 15 km/h 19 km/h 88% 0 mm 0 W/m2
20:19 8 °C 6 °C 1017.44 hPa NW 10 km/h 21 km/h 88% 0 mm 0 W/m2
20:24 8 °C 6 °C 1017.31 hPa NW 14 km/h 11 km/h 88% 0 mm 0 W/m2
20:29 8 °C 6 °C 1017.27 hPa NW 16 km/h 21 km/h 88% 0 mm 0 W/m2
20:34 8 °C 6 °C 1017.31 hPa NW 14 km/h 19 km/h 88% 0 mm 0 W/m2
20:39 8 °C 6 °C 1017.31 hPa NW 13 km/h 16 km/h 89% 0 mm 0 W/m2
20:44 8 °C 6 °C 1017.31 hPa N 14 km/h 19 km/h 89% 0 mm 0 W/m2
20:49 8 °C 6 °C 1017.31 hPa NNW 18 km/h 19 km/h 89% 0 mm 0 W/m2
20:54 8 °C 6 °C 1017.27 hPa NW 13 km/h 23 km/h 89% 0 mm 0 W/m2
20:59 8 °C 6 °C 1017.2 hPa NNW 12 km/h 16 km/h 89% 0 mm 0 W/m2
21:04 8 °C 6 °C 1017.07 hPa NNW 15 km/h 19 km/h 89% 0 mm 0 W/m2
21:09 8 °C 6 °C 1017.1 hPa WNW 12 km/h 23 km/h 89% 0 mm 0 W/m2
21:14 8 °C 6 °C 1017.1 hPa NNW 13 km/h 21 km/h 89% 0 mm 0 W/m2
21:19 8 °C 6 °C 1016.97 hPa NW 13 km/h 16 km/h 89% 0 mm 0 W/m2
21:24 8 °C 6 °C 1016.97 hPa NNW 12 km/h 16 km/h 89% 0 mm 0 W/m2
21:29 8 °C 6 °C 1016.9 hPa NW 18 km/h 14 km/h 90% 0 mm 0 W/m2
21:34 8 °C 6 °C 1016.9 hPa NW 15 km/h 23 km/h 90% 0 mm 0 W/m2
21:39 8 °C 6 °C 1016.9 hPa NW 16 km/h 19 km/h 90% 0 mm 0 W/m2
21:44 8 °C 6 °C 1016.7 hPa NW 17 km/h 23 km/h 90% 0 mm 0 W/m2
21:49 8 °C 6 °C 1016.8 hPa NW 17 km/h 21 km/h 90% 0 mm 0 W/m2
21:54 8 °C 6 °C 1016.97 hPa NNW 17 km/h 19 km/h 90% 0 mm 0 W/m2
21:59 8 °C 6 °C 1017 hPa NW 18 km/h 23 km/h 91% 0 mm 0 W/m2
22:04 8 °C 6 °C 1017.03 hPa NW 18 km/h 23 km/h 91% 0 mm 0 W/m2
22:09 8 °C 6 °C 1017.14 hPa NNW 13 km/h 24 km/h 91% 0 mm 0 W/m2
22:14 8 °C 6 °C 1017.14 hPa WNW 12 km/h 19 km/h 91% 0 mm 0 W/m2
22:19 8 °C 6 °C 1017.17 hPa NW 17 km/h 16 km/h 91% 0 mm 0 W/m2
22:24 8 °C 6 °C 1017.14 hPa NW 17 km/h 21 km/h 92% 0 mm 0 W/m2
22:29 8 °C 6 °C 1017.03 hPa NW 16 km/h 19 km/h 92% 0 mm 0 W/m2
22:34 8 °C 6 °C 1017.03 hPa NW 16 km/h 24 km/h 92% 0 mm 0 W/m2
22:39 8 °C 6 °C 1017.1 hPa NNW 18 km/h 19 km/h 92% 0 mm 0 W/m2
22:44 8 °C 7 °C 1017.07 hPa NW 15 km/h 19 km/h 93% 0 mm 0 W/m2
22:49 8 °C 7 °C 1017.07 hPa NW 15 km/h 19 km/h 93% 0 mm 0 W/m2
22:54 7 °C 7 °C 1017.03 hPa NW 17 km/h 19 km/h 93% 0 mm 0 W/m2
22:59 7 °C 7 °C 1016.97 hPa NNW 14 km/h 19 km/h 94% 0 mm 0 W/m2
23:04 7 °C 6 °C 1016.9 hPa N 19 km/h 21 km/h 94% 0 mm 0 W/m2
23:09 7 °C 6 °C 1016.76 hPa N 17 km/h 27 km/h 94% 0 mm 0 W/m2
23:14 7 °C 7 °C 1016.7 hPa NNW 18 km/h 23 km/h 95% 0 mm 0 W/m2
23:19 7 °C 7 °C 1016.66 hPa NW 18 km/h 23 km/h 95% 0 mm 0 W/m2
23:24 7 °C 7 °C 1016.66 hPa WNW 20 km/h 23 km/h 95% 0 mm 0 W/m2
23:29 7 °C 7 °C 1016.59 hPa NNW 22 km/h 32 km/h 95% 0 mm 0 W/m2
23:34 7 °C 7 °C 1016.63 hPa NNW 20 km/h 27 km/h 95% 0 mm 0 W/m2
23:39 7 °C 7 °C 1016.49 hPa N 23 km/h 29 km/h 95% 0 mm 0 W/m2
23:44 7 °C 7 °C 1016.42 hPa NW 15 km/h 29 km/h 95% 0 mm 0 W/m2
23:49 7 °C 7 °C 1016.42 hPa NW 18 km/h 19 km/h 95% 0 mm 0 W/m2
23:54 7 °C 7 °C 1016.36 hPa N 24 km/h 26 km/h 96% 0 mm 0 W/m2
23:59 7 °C 7 °C 1016.36 hPa NNW 21 km/h 27 km/h 96% 0 mm 0 W/m2
Compliments of Weather Underground - 2 mb